Hourly Weather Roundup
Issued by NWS Central Illinois

Home | Current Version | Previous Version | Text Only | Print | Product List | Glossary On
Versions: 1 2 3 4 5 6 7 8 9 10 11 12 13 14 15 16 17 18 19 20 21 22 23 24 25 26 27 28 29 30 31 32 33 34 35 36 37 38 39 40 41 42 43 44 45 46 47 48 49 50
000
NZUS43 KILX 211010
HWRILX

AREA WEATHER ROUNDUP
NATIONAL WEATHER SERVICE, LINCOLN IL
500 AM CDT TUE OCT 21 2014


CITY           SKY/WX    TMP DP  RH WIND       PRES   REMARKS
BLOOMINGTON    CLEAR     44  40  86 NW7       30.06R
CHAMPAIGN      CLOUDY    44  43  96 N5        30.04R FOG
DECATUR        CLEAR     43  41  93 CALM      30.05R
FLORA          CLEAR     43  42  97 CALM      30.03R
GALESBURG      CLEAR     35  34  96 N3        30.08S
JACKSONVILLE   CLEAR     45  42  89 N3        30.06R
LACON          CLEAR     39  38  96 CALM      30.07R
LAWRENCEVILLE  CLEAR     45  43  93 NW3       30.03R
LITCHFIELD     CLEAR     43  40  89 N5        30.04R
$$


CITY           SKY/WX    TMP DP  RH WIND       PRES   REMARKS
LINCOLN        CLEAR     44  42  91 CALM      30.05R
MACOMB         CLEAR     38  37  97 CALM      30.10R
MATTOON        CLEAR     44  42  93 CALM      30.02R
MT CARMEL AP   CLEAR     46  45  93 CALM      30.03R
OLNEY-NOBLE AP CLEAR     43  43 100 CALM      30.03R
PARIS          CLOUDY    45  45  99 CALM      30.03S FOG
PEORIA         CLEAR     47  40  76 N3        30.07R
PONTIAC        MOCLDY    46  45  93 N7        30.06R
RANTOUL        MOCLDY    47  44  90 NW5       30.05R FOG
ROBINSON       CLEAR     42  42  98 CALM      30.03S
SPRINGFIELD    CLEAR     42  39  89 CALM      30.05R
TAYLORVILLE    CLEAR     39  39 100 N3        30.05R
$$

...REGIONAL REPORTS...


CITY           SKY/WX    TMP DP  RH WIND       PRES   REMARKS
CHICAGO O`HARE CLOUDY    49  41  74 N10       30.04R
KANKAKEE       CLOUDY    48  44  84 NW5       30.05R
MOLINE         CLEAR     39  37  92 W3        30.09R
MOUNT VERNON   CLEAR     45  39  81 CALM      30.03S
PITTSFIELD     CLEAR     46  42  84 W3        30.07R
QUINCY           N/A     44  40  85 NE6       30.06R
ROCKFORD       PTCLDY    44  40  85 NW7       30.10R
$$


CITY           SKY/WX    TMP DP  RH WIND       PRES   REMARKS
BURLINGTON     CLEAR     41  40  96 NE5       30.08R
CEDAR RAPIDS   CLEAR     41  39  93 N5        30.09S
DES MOINES     CLEAR     46  41  82 N3        30.10R
KIRKSVILLE     CLEAR     41  40  96 N3        30.09R
OTTUMWA        CLEAR     43  39  86 NE5       30.09R
ST LOUIS       CLEAR     49  44  83 CALM      30.05R
$$


CITY           SKY/WX    TMP DP  RH WIND       PRES   REMARKS
TERRE HAUTE    MOCLDY    49  46  90 CALM      30.02R
EVANSVILLE     CLEAR     46  43  89 SW5       30.02R
INDIANAPOLIS   PTCLDY    44  42  93 NW7       30.00R
LAFAYETTE      CLOUDY    47  45  93 NW6       30.02R
MADISON        CLOUDY    47  40  76 N7        30.10R
MILWAUKEE      MOCLDY    46  39  76 N10       30.07R
$$




USA.gov is the U.S. government's official web portal to all federal, state and local government web resources and services.